Weather Roundup
Issued by NWS Springfield, MO

Home | Current Version | Previous Version | Text Only | Print | Product List | Glossary On
Versions: 1 2 3 4 5 6 7 8 9 10 11 12 13 14 15 16 17 18 19 20 21 22 23 24 25 26 27 28 29 30 31 32 33 34 35 36 37 38 39 40 41 42 43 44 45 46 47 48 49 50
000
NZUS99 KSGF 211707
HRRSGF

HOURLY WEATHER
NATIONAL WEATHER SERVICE SPRINGFIELD MO
1200 PM CDT THU SEP 21 2017

......SGF CWA......

CITY           SKY/WX    TMP DP  RH WIND       PRES   REMARKS
SPRINGFIELD    SUNNY     88  72  58 S10       30.01F HX  94
JOPLIN         MOSUNNY   87  75  67 S15       29.97F HX  96
WEST PLAINS    MOSUNNY   86  70  58 S7        30.07F HX  90
ROLLA          MOSUNNY   89  71  55 S14       30.04F HX  95
OSAGE BEACH    SUNNY     88  74  63 S9        30.02F HX  96
BRANSON        MOSUNNY   88  70  55 S7        30.04F HX  92

......SURROUNDING SGF CWA......

CITY           SKY/WX    TMP DP  RH WIND       PRES   REMARKS
CHANUTE        PTSUNNY   86  74  67 S21       29.93S HX  94
COFFEYVILLE    SUNNY     87  74  64 S16       29.92S HX  95
EMPORIA        SUNNY     86  72  62 S17G23    29.88F HX  92
GROVE OK       MOSUNNY   88  73  62 S13G18    29.98F HX  96
ROGERS AR      MOSUNNY   85  72  65 S14       30.04R HX  91
SILOAM SPRINGS MOSUNNY   84  73  69 S15       30.02S HX  90
HARRISON AR    SUNNY     85  70  60 S12       30.06S
NEAR YELLVILLE SUNNY     87  71  58 VRB7      30.04F HX  93

......KANSAS AND MISSOURI......

CITY           SKY/WX    TMP DP  RH WIND       PRES   REMARKS
KANSAS CTY INT MOSUNNY   85  74  69 S15       29.92F HX  92
DOWNTOWN KC    SUNNY     88  74  63 S9        29.91F HX  96
COLUMBIA       SUNNY     87  73  62 S7        30.02F HX  94
SEDALIA        SUNNY     89  76  65 S12       30.00F HX 100
ST JOSEPH      SUNNY     88  74  63 S13G21    29.89F HX  96
ST LOUIS       CLOUDY    83  73  72 E8        30.04S
SPIRIT OF STL  CLOUDY    89  72  56 SE7       30.01F HX  96
KIRKSVILLE     MOSUNNY   79  68  69 SE10G25   30.01F
WICHITA        MOSUNNY   89  72  56 S20G29    29.84F HX  96
TOPEKA         MOSUNNY   86  75  69 S14       29.88S HX  95
OLATHE         SUNNY     84  74  71 S16       29.93F HX  91

......TENNESSEE......

CITY           SKY/WX    TMP DP  RH WIND       PRES   REMARKS
MEMPHIS        MOSUNNY   88  71  57 SW7       30.07F HX  94
NASHVILLE      PTSUNNY   87  73  62 N6        30.10F HX  94

......ARKANSAS.......

CITY           SKY/WX    TMP DP  RH WIND       PRES   REMARKS
FAYETTEVILLE   CLOUDY    80  74  81 S10       30.04R
FT SMITH       PTSUNNY   87  74  64 VRB5      30.00S HX  95
LITTLE ROCK    MOSUNNY   85  75  72 S8        30.05F HX  93

......OKLAHOMA.......

CITY           SKY/WX    TMP DP  RH WIND       PRES   REMARKS
TULSA          PTSUNNY   88  73  61 S17G26    29.91S HX  95
PONCA CITY     SUNNY     90  72  55 S14G22    29.86F HX  97
MCALESTER      SUNNY     88  72  58 S13G20    29.97S HX  94
OKLAHOMA CITY  PTSUNNY   87  71  58 S16G26    29.91S HX  93

......IOWA............

CITY           SKY/WX    TMP DP  RH WIND       PRES   REMARKS
DES MOINES     CLOUDY    78  66  66 SE20      29.94S
QUAD CITIES    CLOUDY    80  57  45 SW12      29.94R

......ILLINOIS........

CITY           SKY/WX    TMP DP  RH WIND       PRES   REMARKS
QUINCY         CLOUDY    80  65  59 E7        30.03F
CHICAGO        PTSUNNY   90  62  39 S6        30.02S HX  90




USA.gov is the U.S. government's official web portal to all federal, state and local government web resources and services.